Location: Cabri�res
(43.7840°N, 5.4986°E)
Time: 11:36:42
(UTC+00:00)

SL-4 R/B - Pass Details

Date: 09 April 2020
Orbit: 428 x 666 km, 51.6° (Epoch: 04 June)

Event Time Altitude Azimuth Distance (km) Brightness Sun altitude
Rises 20:41:57 0° 291° (WNW) 2,393 6.5 -24.5°
Reaches altitude 10° 20:44:22 10° 308° (NW) 1,532 5.4 -24.8°
Maximum altitude 20:47:06 22° 1° (N) 1,019 3.8 -25.2°
Enters shadow 20:47:17 22° 6° (N) 1,023 3.7 -25.2°
